Skip Page Navigation
NASA JPL Caltech
NASA Logo - Jet Propulsion Laboratory + View the NASA Portal
+ Center for Near-Earth Object Studies
JPL Home Earth Solar System Stars & Galaxies Technology
JPL Solar System Dynamics
BODIES ORBITS EPHEMERIDES TOOLS PHYSICAL DATA DISCOVERY FAQ SITE MAP
JPL Small-Body Database Browser
Search: [ help ]  
26733 Nanavisitor (2001 HC16)
Classification: Main-belt Asteroid          SPK-ID: 2026733
Ephemeris | Orbit Diagram | Orbital Elements | Mission Design | Physical Parameters | Discovery Circumstances | Close-Approach Data ]

[ hide orbit diagram ]
Orbit Diagram
[ switch to new HTML5 viewer ]

Note: This Java-based orbit viewer will eventually be retired.

Note: Make sure you have Java enabled on your browser to see the applet. This applet is provided as a 3D orbit visualization tool. The applet was implemented using two-body methods, and hence should not be used for determining accurate long-term trajectories (over several years or decades) or planetary encounter circumstances. For accurate long-term ephemerides, please instead use our Horizons system.

Note: If the applet is not working, here are some notes that might help.
Orbit Viewer

Additional Notes: the orbits shown in the applet are color coded. The planets are white lines, and the asteroid/comet is a blue line. The bright white line indicates the portion of the orbit that is above the ecliptic plane, and the darker portion is below the ecliptic plane. Likewise for the asteroid/comet orbit, the light blue indicates the portion above the ecliptic plane, and the dark blue the portion below the ecliptic plane.

Orbit Viewer applet originally written and kindly provided by Osamu Ajiki (AstroArts), and further modified by Ron Baalke (JPL).


Orbital Elements at Epoch 2459000.5 (2020-May-31.0) TDB
Reference: JPL 23 (heliocentric ecliptic J2000)
 Element Value Uncertainty (1-sigma)   Units 
e .1538748030445069 3.0966e-08  
a 2.602483537142698 1.0333e-08 au
q 2.202026895438294 8.0597e-08 au
i 2.089843000010607 4.0162e-06 deg
node 276.8794378480887 0.00010444 deg
peri 42.08840877147497 0.00010545 deg
M 120.1388630420793 1.5289e-05 deg
tp 2458488.745782973404
(2019-Jan-05.24578297)
6.4104e-05 TDB
period 1533.488110879212
4.20
9.1331e-06
2.501e-08
d
yr
n .2347589116902883 1.3982e-09 deg/d
Q 3.002940178847103 1.1923e-08 au
  Orbit Determination Parameters
   # obs. used (total)      1250  
   data-arc span      10457 days (28.63 yr)  
   first obs. used      1992-03-03  
   last obs. used      2020-10-19  
   planetary ephem.      DE431  
   SB-pert. ephem.      SB431-N16  
   condition code      0  
   norm. resid. RMS      .51307  
   source      ORB  
   producer      Otto Matic  
   solution date      2020-Nov-13 01:27:15  

Additional Information
 Earth MOID = 1.18942 au 
 Jupiter MOID = 2.28781 au 
 T_jup = 3.396 
[ show covariance matrix ]

Ephemeris | Orbit Diagram | Orbital Elements | Mission Design | Physical Parameters | Discovery Circumstances | Close-Approach Data ]

Physical Parameter Table
Parameter Symbol Value Units Sigma Reference Notes
absolute magnitude H 14.8   n/a MPO358879  
diameter diameter 2.682 km 0.402 urn:nasa:pds:neowise_diameters_albedos::2.0[mainbelt] (http://adsabs.harvard.edu/abs/2011ApJ...741...68M)  
geometric albedo albedo 0.355   0.137 urn:nasa:pds:neowise_diameters_albedos::2.0[mainbelt] (http://adsabs.harvard.edu/abs/2011ApJ...741...68M)  

26733 Nanavisitor           Discovered 2001 Apr. 22 by W. K. Y. Yeung at Desert Beaver Observatory.
Nana Visitor (b. 1957) is a talented actress who started her career on the stage, but most of her work appeared on television. She is most famous for playing the role of Major Kira Nerys in the Star Trek series Deep Space Nine.
NOTE: some special characters may not display properly (any characters within {} are an attempt to place the proper accent above a character)
Reference: 20011130/MPCPages.arcLast Updated: 2009-05-11

[ show close-approach data ]
Alternate Designations
 2001 HC16 = 1992 ED37 = 1992 EN35 = 2000 CZ114 
Ephemeris | Orbit Diagram | Orbital Elements | Mission Design | Physical Parameters | Discovery Circumstances | Close-Approach Data ]
ABOUT SSD CREDITS/AWARDS PRIVACY/COPYRIGHT GLOSSARY LINKS
FirstGov 2020-Nov-30 15:24 UT
(server date/time)  
NASA Home Page
Site Manager:   Ryan S. Park
Webmaster  Alan B. Chamberlin